This is the latest recevied weather packets stored in our database for station/object KN6ZYR. If no packets are shown the sender has not sent any weather packets the latest 10 day(s).
| Time | Temp. | Humidity | Pressure | Rain* | Wind** | Luminosity | Snow |
|---|---|---|---|---|---|---|---|
| 1777674720 | 25.56° C | 10% | 1020 hPa | 0 mm | - | 565 W/m² | - |
| 1777674416 | 26.11° C | 11% | 1019.9 hPa | 0 mm | - | 586 W/m² | - |
| 1777674114 | 25.56° C | 11% | 1020.1 hPa | 0 mm | - | 529 W/m² | - |
| 1777673810 | 26.11° C | 11% | 1020.2 hPa | 0 mm | - | 574 W/m² | - |
| 1777673507 | 25.56° C | 11% | 1020.2 hPa | 0 mm | - | 610 W/m² | - |
| 1777673205 | 25° C | 11% | 1020.1 hPa | 0 mm | - | 620 W/m² | - |
| 1777672902 | 25° C | 12% | 1020.4 hPa | 0 mm | - | 633 W/m² | - |
| 1777672599 | 25° C | 12% | 1020.6 hPa | 0 mm | - | 658 W/m² | - |
| 1777672294 | 26.11° C | 11% | 1020.8 hPa | 0 mm | - | 670 W/m² | - |
| 1777671989 | 25.56° C | 12% | 1020.6 hPa | 0 mm | - | 618 W/m² | - |
| 1777671684 | 25.56° C | 11% | 1020.6 hPa | 0 mm | - | 689 W/m² | - |
| 1777671382 | 25° C | 14% | 1020.7 hPa | 0 mm | - | 657 W/m² | - |
| 1777671078 | 25° C | 13% | 1020.8 hPa | 0 mm | - | 696 W/m² | - |
| 1777670775 | 25° C | 12% | 1020.8 hPa | 0 mm | - | 713 W/m² | - |
| 1777670471 | 24.44° C | 13% | 1020.8 hPa | 0 mm | - | 720 W/m² | - |
| 1777670168 | 24.44° C | 12% | 1021 hPa | 0 mm | - | 715 W/m² | - |
| 1777669866 | 24.44° C | 13% | 1020.9 hPa | 0 mm | - | 737 W/m² | - |
| 1777669562 | 25° C | 12% | 1021.2 hPa | 0 mm | - | 736 W/m² | - |
| 1777669259 | 25° C | 12% | 1021.2 hPa | 0 mm | - | 750 W/m² | - |
| 1777668955 | 24.44° C | 13% | 1021.4 hPa | 0 mm | - | 758 W/m² | - |
| 1777668653 | 24.44° C | 13% | 1021.3 hPa | 0 mm | - | 760 W/m² | - |
| 1777668349 | 25° C | 12% | 1021.4 hPa | 0 mm | - | 754 W/m² | - |
| 1777668045 | 24.44° C | 13% | 1021.4 hPa | 0 mm | - | 776 W/m² | - |
| 1777667742 | 24.44° C | 12% | 1021.4 hPa | 0 mm | - | 777 W/m² | - |
| 1777667440 | 25° C | 12% | 1021.4 hPa | 0 mm | - | 784 W/m² | - |
* Rain latest hour (hover to see other rain measurements)
** Current wind speed in m/s (hover to see current wind gust speed)